This is the latest recevied weather packets stored in our database for station/object KT2UU-13. If no packets are shown the sender has not sent any weather packets the latest 10 day(s).
| Time | Temp. | Humidity | Pressure | Rain* | Wind** | Luminosity | Snow |
|---|---|---|---|---|---|---|---|
| 1777835590 | 18.89° C | 47% | 1020.1 hPa | 0 mm | - | - | - |
| 1777835286 | 19.44° C | 43% | 1020.2 hPa | 0 mm | - | - | - |
| 1777834984 | 18.89° C | 45% | 1020.3 hPa | 0 mm | - | - | - |
| 1777834681 | 19.44° C | 46% | 1020.3 hPa | 0 mm | - | - | - |
| 1777834376 | 19.44° C | 45% | 1020.4 hPa | 0 mm | - | - | - |
| 1777834076 | 18.89° C | 46% | 1020.4 hPa | 0 mm | - | - | - |
| 1777833773 | 18.89° C | 44% | 1020.7 hPa | 0 mm | - | - | - |
| 1777833468 | 18.33° C | 48% | 1020.8 hPa | 0 mm | - | - | - |
| 1777833166 | 17.78° C | 49% | 1020.6 hPa | 0 mm | - | - | - |
| 1777832864 | 18.33° C | 52% | 1020.7 hPa | 0 mm | - | - | - |
| 1777832563 | 17.78° C | 51% | 1020.7 hPa | 0 mm | - | - | - |
| 1777832259 | 17.78° C | 50% | 1020.8 hPa | 0 mm | - | - | - |
| 1777831956 | 17.78° C | 49% | 1021 hPa | 0 mm | - | - | - |
| 1777831652 | 17.78° C | 46% | 1021.1 hPa | 0 mm | - | - | - |
| 1777831351 | 17.78° C | 49% | 1020.9 hPa | 0 mm | - | - | - |
| 1777831047 | 17.22° C | 46% | 1021.1 hPa | 0 mm | - | - | - |
| 1777830745 | 17.78° C | 45% | 1021.4 hPa | 0 mm | - | - | - |
| 1777830441 | 17.78° C | 44% | 1021.1 hPa | 0 mm | - | - | - |
| 1777830139 | 17.22° C | 46% | 1021.2 hPa | 0 mm | - | - | - |
| 1777829834 | 17.22° C | 48% | 1021 hPa | 0 mm | - | - | - |
| 1777829530 | 17.78° C | 46% | 1020.9 hPa | 0 mm | - | - | - |
| 1777829227 | 16.67° C | 48% | 1021.3 hPa | 0 mm | - | - | - |
| 1777828924 | 16.67° C | 46% | 1021.4 hPa | 0 mm | - | - | - |
| 1777828620 | 16.11° C | 48% | 1021.3 hPa | 0 mm | - | - | - |
| 1777828318 | 16.11° C | 47% | 1021.6 hPa | 0 mm | - | - | - |
* Rain latest hour (hover to see other rain measurements)
** Current wind speed in m/s (hover to see current wind gust speed)